User: anonymous   Login
Location: Betra
(48.4113°N, 8.6634°E)
Time: 02:18:29
(UTC+00:00)
Language:

ADEOS II - Orbit

View from above orbital plane
View from above orbital plane
View from above satellite
View from above satellite

Ground track
Ground track

The orbit data is extracted from the following two-line orbital elements,

1 27597U 02056A   24200.55942199  .00000835  00000-0  35179-3 0  9999
2 27597  98.6926 147.1207 0000880  30.8525 329.2707 14.28415088124731
Epoch (UTC): 18 July 2024 13:25:34
Eccentricity: 0.0000880
inclination: 98.6926°
perigee height: 796 km
apogee height: 797 km
right ascension of ascending node: 147.1207°
argument of perigee: 30.8525°
revolutions per day: 14.28415088
mean anomaly at epoch: 329.2707°
orbit number at epoch: 12473

The dashed part of the orbit path shows where the satellite is in the earth's shadow,  

DLR